Location: Costa Mesa
(33.6411°N, 117.9187°W)
Time: 13:36:44
(UTC+00:00)

Daily predictions for brighter satellites

Satellite Brightness Start Highest point End
(mag) Time Altitude Azimuth Time Altitude Azimuth Time Altitude Azimuth
Cosmos 1867 3.5 12:03:58 29° SW 12:06:50 74° WNW 12:12:19 10° NNE
Cosmos 1666 3.5 12:10:55 10° NNW 12:12:49 27° NW 12:12:49 27° NW
Cosmos 2322 Rocket 2.1 12:09:08 10° NNW 12:14:44 64° WSW 12:20:16 10° S
DELTA 2 R/B (1) 4.3 12:12:36 20° WNW 12:16:07 46° N 12:21:28 10° ENE
ARGOS 3.8 12:16:29 10° NNE 12:21:44 56° E 12:26:58 10° S
NOSS 3-2 (C) 3.3 12:17:57 10° SSW 12:22:50 68° ESE 12:28:23 10° NE
Cosmos 2219 Rocket 2.8 12:18:49 10° NNW 12:24:22 58° ENE 12:29:51 10° SSE
Cosmos 1862 4.1 12:22:27 10° NNW 12:25:38 27° W 12:26:07 26° WSW
Chandra Rocket (1) 2.9 12:23:50 24° WSW 12:25:49 49° S 12:34:48 10° ESE
Cosmos 1758 Rocket 4.2 12:21:56 10° NNW 12:25:50 32° W 12:29:43 10° SSW
Cosmos 468 Rocket 3.9 12:21:38 10° NNW 12:26:52 86° WSW 12:32:08 10° SSE
Cosmos 2333 Rocket 2.1 12:22:16 10° NNW 12:27:55 66° WSW 12:33:31 10° S
Cosmos 1602 3.3 12:27:45 10° N 12:31:15 71° W 12:34:44 10° S
Cosmos 2058 Rocket 3.8 12:27:21 10° S 12:31:38 56° E 12:36:00 10° NNE
Cosmos 540 Rocket 3.4 12:30:18 10° NNW 12:35:19 58° WSW 12:40:19 10° S
SL-16 R/B 3.2 12:31:18 10° NW 12:35:39 23° W 12:39:58 10° SSW
Cosmos 1818 3.6 12:32:10 10° NW 12:37:30 55° WSW 12:42:45 10° S
Cosmos 1484 Rocket 2.6 12:35:58 10° N 12:39:40 64° WNW 12:43:22 10° SSW
Thor Agena Rocket 3.9 12:35:14 10° N 12:40:04 43° WNW 12:44:56 10° SW
H-2A R/B 4.1 12:38:45 10° NNE 12:41:24 31° E 12:44:03 10° SSE
Cosmos 1726 Rocket 3.8 12:38:58 10° SSW 12:43:06 46° W 12:47:16 10° N
Cosmos 1763 Rocket 4.1 12:40:35 10° NW 12:45:08 33° W 12:49:44 10° SSW
Cosmos 1850 Rocket 4.0 12:42:19 10° SSW 12:47:33 79° WNW 12:52:51 10° NNE
CZ-2C R/B 4.1 12:46:30 10° NW 12:48:57 14° WNW 12:50:54 11° W
Cosmos 1515 4.0 12:47:47 10° S 12:51:05 61° E 12:54:26 10° NNE
Cosmos 1939 Rocket 3.2 12:47:58 10° N 12:51:44 42° WNW 12:55:28 10° SW
Cosmos 1378 3.2 12:52:03 10° S 12:55:06 63° E 12:58:10 10° NNE
Cosmos 2151 2.9 12:51:48 10° NNW 12:55:53 63° W 12:59:58 10° S
NOSS 3-2 (A) 4.4 12:54:54 10° W 12:58:58 24° NW 13:03:37 10° N
Cosmos 2333 4.4 12:53:41 10° NNW 12:59:04 47° WSW 13:04:24 10° S
SME Rocket 3.5 12:57:02 10° N 13:00:29 36° WNW 13:04:17 10° SW
Cosmos 1238 Rocket 4.0 12:56:23 10° S 13:01:41 73° E 13:07:24 10° N
COSMO-SKYMED 1 3.3 12:57:54 10° SSE 13:02:09 60° ENE 13:06:26 10° N
Atlas Centaur 2 2.8 12:59:11 10° WSW 13:05:00 61° S 13:12:16 10° E
Cosmos 1812 4.3 13:04:18 10° WSW 13:06:17 14° WNW 13:08:17 10° NW
Cosmos 1825 Rocket 4.3 13:02:59 10° NNW 13:06:53 31° W 13:10:45 10° SSW
Cosmos 1076 Rocket 3.4 13:05:52 10° N 13:10:07 77° W 13:14:21 10° S
CBERS-1 4.4 13:05:21 10° N 13:10:08 43° WNW 13:14:55 10° SW
CENTAUR R/B 4.1 13:06:58 10° WNW 13:10:23 16° NW 13:14:12 10° N
GP-B 3.5 13:06:50 10° SSW 13:11:00 42° W 13:15:10 10° NNW
COSMOS 2428 3.4 13:05:39 10° NNW 13:11:21 63° ENE 13:17:00 10° SSE
Cosmos 1727 Rocket 4.1 13:06:07 10° SSW 13:12:15 60° W 13:18:22 10° N
ATLAS 5 CENTAUR R/B 4.3 13:09:44 10° W 13:30:35 32° SW 13:37:03 10° SSE
